Location: Cherry Springs State Park
(41.6616°N, 77.8240°W)
Time: 06:38:48
(UTC-04:00)

Daily predictions for brighter satellites

Satellite Brightness Start Highest point End
(mag) Time Altitude Azimuth Time Altitude Azimuth Time Altitude Azimuth
ALOS 2.8 21:03:43 10° S 21:08:21 64° W 21:13:00 10° NNW
Cosmos 2369 Rocket 3.1 21:06:38 10° N 21:11:51 36° ENE 21:16:59 10° SE
ISS -3.1 21:11:26 10° WSW 21:14:40 77° NW 21:17:57 10° NE
Cosmos 1666 3.2 21:12:29 10° NNW 21:16:22 66° W 21:20:13 10° S
Cosmos 1602 Rocket 3.6 21:13:52 10° S 21:18:20 81° E 21:22:49 10° N
ATLAS 3B R/B 3.3 21:12:36 10° S 21:19:42 42° ESE 21:26:42 10° NE
USA 186 3.3 21:17:39 10° SSW 21:20:04 27° W 21:22:22 10° NW
Cosmos 2058 Rocket 4.4 21:16:13 10° NNW 21:20:18 40° W 21:24:22 10° SSW
SL-16 R/B 4.3 21:18:32 10° WSW 21:23:35 33° WNW 21:28:41 10° N
H-2A R/B 4.1 21:26:38 10° ENE 21:28:01 11° ENE 21:29:24 10° NE
Cosmos 1812 Rocket 3.6 21:24:49 10° N 21:29:14 74° E 21:33:39 10° SSE
Tsikada Rocket 4.1 21:24:12 10° S 21:30:36 81° E 21:36:59 10° N
PSLV R/B 3.3 21:27:47 10° W 21:31:18 81° S 21:34:52 10° E
YAOGAN 6 4.0 21:32:00 12° ESE 21:34:42 25° ENE 21:37:47 10° NNE
CZ-2C R/B 2.4 21:34:23 10° SSW 21:36:24 27° W 21:38:26 10° NW
SPOT 1/Viking Rocket 4.5 21:32:17 11° SE 21:36:34 33° ENE 21:41:07 10° N
SPOT 5 2.8 21:32:23 10° SSE 21:36:38 55° ENE 21:40:53 10° N
Terra 4.0 21:37:17 10° E 21:38:58 12° ENE 21:40:39 10° NE
USA 234 4.1 21:35:23 10° E 21:41:32 45° NNE 21:47:43 10° NW
H-2A R/B 2.5 21:37:30 10° S 21:41:45 63° WSW 21:46:07 10° NNW
Lacrosse 4 Rocket 1.7 21:38:53 10° S 21:42:42 43° ESE 21:46:36 10° NE
CZ-4 SHROUD 3.2 21:40:46 13° SSE 21:43:29 68° ENE 21:46:38 10° N
deb Chang Zheng 4 4.1 21:39:28 10° N 21:43:51 65° WNW 21:48:08 10° SSW
ERS-1 Rocket 3.6 21:39:13 10° S 21:44:07 54° W 21:49:03 10° NNW
GEOS 3 Rocket 4.2 21:42:46 10° SSE 21:47:54 52° WSW 21:53:01 10° NW
Cosmos 1515 3.6 21:44:34 10° S 21:48:25 78° E 21:52:18 10° N
PSLV R/B 3.1 21:47:37 15° SSE 21:50:06 80° ENE 21:53:13 10° N
Meteor 2-12 Rocket 4.4 21:44:07 10° N 21:50:14 87° E 21:56:17 10° S
Cosmos 1066 Rocket 4.3 21:49:33 10° S 21:55:10 63° E 22:00:56 10° NNE
MetOp-A 4.2 21:52:36 14° SSE 21:57:16 71° ENE 22:02:37 10° N
Atlas Centaur 2 3.5 21:51:25 10° WSW 21:57:49 35° S 22:03:24 16° SE
Envisat 3.2 21:54:21 10° S 21:59:24 74° WSW 22:04:30 10° NNW
Cosmos 1634 Rocket 4.0 21:55:49 10° N 22:02:00 73° E 22:07:18 15° SSE
Cosmos 407 Rocket 3.5 21:57:37 10° S 22:02:47 60° ESE 22:07:56 10° NNE
USA 245 4.3 21:58:44 16° SSE 22:03:10 58° ENE 22:07:56 10° N
USA 238 DEB 4.3 21:58:26 10° S 22:04:40 34° ESE 22:10:53 10° NE
USA 238 4.4 21:58:34 10° S 22:04:46 34° ESE 22:10:58 10° NE
Cosmos 1943 Rocket 3.0 22:00:09 10° N 22:05:20 38° ENE 22:08:55 18° ESE
Meteor 1-22 Rocket 4.3 21:59:48 10° N 22:05:24 64° ENE 22:09:45 18° SSE
Cosmos 1900 4.4 22:03:06 10° SSW 22:08:12 69° ESE 22:13:20 10° NE
Cosmos 1953 Rocket 3.5 22:06:21 14° S 22:10:06 69° E 22:14:33 10° NNE
Cosmos 489 Rocket 4.5 22:04:24 10° S 22:10:41 68° ESE 22:17:01 10° NNE
SL-27 R/B 3.5 22:11:35 24° ESE 22:11:41 24° ESE 22:14:28 10° NE
Cosmos-2242 4.1 22:08:58 10° NNE 22:12:53 30° ENE 22:14:41 22° ESE
Cosmos 1943 3.4 22:07:28 10° SSW 22:13:07 76° WNW 22:18:51 10° NNE
Cosmos 2346 Rocket 4.5 22:11:29 10° S 22:17:40 87° W 22:23:50 10° N
Cosmos 1953 3.5 22:15:57 10° NNE 22:19:22 27° ENE 22:20:32 23° ESE
SL-08 RB Rocket 3.9 22:19:22 26° SE 22:21:45 54° ENE 22:26:09 10° N
Cosmos 2279 Rocket 4.1 22:15:35 10° N 22:21:47 61° E 22:25:43 23° SSE
Cosmos 1954 Rocket 4.2 22:19:49 17° S 22:23:46 53° ESE 22:28:56 10° NNE
Cosmos 1932 4.5 22:19:16 10° SSW 22:25:16 56° ESE 22:31:20 10° NE
Cosmos 1346 Rocket 3.1 22:27:06 13° SSW 22:30:27 64° W 22:34:23 10° N
CZ-4C R/B 4.0 22:32:02 13° E 22:32:02 13° E 22:33:35 10° ENE
Cosmos 1842 3.3 22:35:17 37° SSE 22:36:37 61° E 22:40:29 10° NNE
SeaSat 1 2.9 22:35:39 23° S 22:38:33 53° WSW 22:43:23 10° NW
ARGOS 3.2 22:36:49 25° S 22:40:03 84° WSW 22:45:32 10° NNW
Cosmos 1758 Rocket 3.9 22:40:29 17° SSW 22:43:46 62° W 22:48:06 10° N
SL-23 DEB 4.2 22:37:31 10° SW 22:43:54 89° SSE 22:47:41 10° NE
Meteor 1-21 4.3 22:39:58 16° S 22:44:43 85° W 22:50:35 10° N
CARTOSAT-1 3.9 22:45:04 37° ESE 22:46:22 50° ENE 22:50:34 10° N
Cosmos 1741 Rocket 4.5 22:45:25 33° SE 22:46:56 41° ESE 22:51:54 10° NNE
Cosmos 2180 Rocket 4.5 22:42:11 10° N 22:48:30 82° E 22:51:59 29° SSE
Geosat 4.0 22:46:24 10° NE 22:51:22 56° ESE 22:53:29 32° S
ISS -0.4 22:49:06 10° WNW 22:51:33 19° NNW 22:54:00 10° NNE
CZ-4B R/B 4.5 22:48:59 10° N 22:53:53 47° WNW 22:58:51 10° SW
Cosmos 2369 Rocket 3.4 22:50:47 10° NW 22:55:48 33° WSW 22:59:14 17° SSW
Landsat 7 3.8 22:58:24 39° S 23:00:11 84° WSW 23:04:59 10° NNW
Cosmos 1766 4.2 22:57:40 10° NNW 23:01:31 44° W 23:03:02 30° SW
Cosmos 1023 Rocket 4.4 22:59:57 30° S 23:02:34 78° ESE 23:07:51 10° NNE
Cosmos 1850 Rocket 4.0 23:01:16 39° SSE 23:02:59 60° ESE 23:08:07 10° NNE
Cosmos 1570 Rocket 4.0 23:01:01 10° NNW 23:06:24 77° ENE 23:08:12 43° SSE
H-2A R/B 1.9 23:04:52 43° SSE 23:06:34 85° ENE 23:11:41 10° NNW
Meteor 2-5 Rocket 4.5 23:06:10 33° ESE 23:07:26 37° E 23:12:41 10° NNE
Cosmos 1758 3.3 23:03:18 10° N 23:07:27 85° W 23:08:15 57° S
PSLV R/B 3.8 23:05:23 10° W 23:08:18 51° WSW 23:08:18 51° WSW
Cosmos 1140 Rocket 3.4 23:07:18 30° SSW 23:09:59 89° ESE 23:15:16 10° NNE
ATLAS 3B R/B 3.9 23:03:00 10° WSW 23:10:25 49° NW 23:17:39 10° NNE
Spot 4 3.8 23:11:57 49° SE 23:13:10 75° ENE 23:17:58 10° N
IGS 5A 3.3 23:12:43 62° SSE 23:13:23 85° E 23:17:34 10° NNW
Cosmos 1842 Rocket 3.5 23:10:15 10° N 23:14:40 72° E 23:15:21 59° SE
Terra 1.8 23:14:42 49° S 23:16:00 83° WSW 23:20:47 10° NNW
Cosmos 1340 3.6 23:17:42 36° ENE 23:17:42 36° ENE 23:20:38 10° NNE
NOSS 3-2 (A) 3.8 23:20:30 40° SE 23:21:23 43° ESE 23:27:30 10° NE
Lacrosse 4 Rocket 4.1 23:18:44 10° W 23:21:39 19° NW 23:24:35 10° N
SAR-Lupe-2 4.0 23:23:38 50° WSW 23:23:46 50° W 23:27:17 10° NNW
Cosmos 1544 3.2 23:20:20 10° N 23:23:55 66° ENE 23:23:55 66° ENE
Cosmos 2084 3.8 23:20:15 10° NW 23:24:17 50° WSW 23:24:37 49° SW
USA 234 3.3 23:21:49 38° SSE 23:24:22 64° SW 23:30:54 10° NW
Cosmos 1470 3.0 23:24:17 10° N 23:27:56 55° ENE 23:27:56 55° ENE
Cosmos 1092 Rocket 3.9 23:27:08 41° S 23:29:29 78° E 23:35:46 10° N
Cosmos 1805 3.7 23:25:44 10° NNW 23:29:34 51° W 23:29:59 48° WSW
Lacrosse 5 4.2 23:27:35 10° NNW 23:31:14 19° NNE 23:34:53 10° ENE
Cosmos 614 Rocket 3.9 23:30:46 47° SSW 23:32:18 89° ESE 23:37:33 10° NNE
COSMOS 2406 3.6 23:33:42 20° SW 23:37:40 61° WNW 23:43:23 10° NNE
Nadezhda 4 Rocket 4.2 23:34:52 31° SSW 23:38:02 68° W 23:44:22 10° N
Atlas Centaur 2 3.9 23:40:20 10° WSW 23:46:02 28° SSW 23:46:02 28° SSW
Cosmos 2221 2.9 23:43:35 10° N 23:47:39 52° ENE 23:47:39 52° ENE
Cosmos 2082 Rocket 3.9 23:49:20 19° E 23:49:20 19° E 23:52:28 10° NE
Cosmos 1943 Rocket 3.4 23:44:07 10° NW 23:48:56 31° WSW 23:50:26 27° SW
SL-8 R/B 3.5 23:44:38 10° WNW 23:49:29 78° SSW 23:49:39 77° S
COSMOS 2487 3.3 23:54:06 50° NW 23:54:06 50° NW 23:57:18 10° N
Cosmos 1953 4.2 23:52:40 10° NW 23:55:40 21° W 23:56:18 20° WSW
